KC5NAM Weather Reports


Display with metric or nautical units.
time (UTC)temp
F
wind
direction
speed
MPH
gust
MPH
rain 1hr
in
rain 24hr
in
rain mn
in
humidity
%
barometer
mb
20260904201036 97 63 1.0 9.0 0.00 0.00 0.00 51 1016.9
20260904200536 96 0 2.0 9.0 0.00 0.00 0.00 51 1017.0
20260904200053 96 85 0.0 7.0 0.00 0.00 0.00 52 1017.1
20260904195536 96 83 3.0 7.0 0.00 0.00 0.00 52 1017.2
20260904195041 96 88 1.0 9.0 0.00 0.00 0.00 54 1017.3
20260904194558 95 78 1.0 9.0 0.00 0.00 0.00 53 1017.3
20260904194035 95 106 2.0 8.0 0.00 0.00 0.00 54 1017.3
20260904193535 94 77 2.0 8.0 0.00 0.00 0.00 55 1017.4
20260904193100 94 0 1.0 7.0 0.00 0.00 0.00 56 1017.4
20260904192534 94 0 0.0 7.0 0.00 0.00 0.00 57 1017.4
20260904192037 93 94 2.0 7.0 0.00 0.00 0.00 57 1017.5
20260904191550 93 73 0.0 6.0 0.00 0.00 0.00 57 1017.6
20260904191036 93 165 1.0 6.0 0.00 0.00 0.00 58 1017.7
20260904190534 93 86 1.0 6.0 0.00 0.00 0.00 58 1017.7
20260904190057 93 0 0.0 7.0 0.00 0.00 0.00 58 1017.7
20260904185535 93 116 3.0 8.0 0.00 0.00 0.00 58 1017.8
20260904185036 93 123 2.0 8.0 0.00 0.00 0.00 58 1017.8
20260904184552 93 0 2.0 8.0 0.00 0.00 0.00 58 1017.7
20260904184036 93 0 0.0 6.0 0.00 0.00 0.00 58 1017.8
20260904183535 92 0 1.0 7.0 0.00 0.00 0.00 58 1017.8
20260904183059 92 120 3.0 8.0 0.00 0.00 0.00 58 1018.0
20260904182534 93 117 1.0 8.0 0.00 0.00 0.00 58 1018.0
20260904182033 93 89 1.0 7.0 0.00 0.00 0.00 59 1018.1
20260904181547 93 101 2.0 7.0 0.00 0.00 0.00 58 1018.0
20260904181034 93 96 2.0 8.0 0.00 0.00 0.00 59 1018.1
20260904180534 93 102 3.0 10.0 0.00 0.00 0.00 59 1018.2
20260904180103 94 153 5.0 10.0 0.00 0.00 0.00 58 1018.3
20260904175534 94 67 3.0 10.0 0.00 0.00 0.00 57 1018.2
20260904175034 94 0 0.0 8.0 0.00 0.00 0.00 57 1018.2
20260904174550 95 163 4.0 10.0 0.00 0.00 0.00 58 1018.2
20260904174034 95 111 0.0 11.0 0.00 0.00 0.00 57 1018.2
20260904173535 96 0 4.0 11.0 0.00 0.00 0.00 55 1018.3
20260904173111 96 62 1.0 10.0 0.00 0.00 0.00 58 1018.5
20260904172539 95 0 2.0 10.0 0.00 0.00 0.00 58 1018.5
20260904172035 95 143 3.0 9.0 0.00 0.00 0.00 59 1018.7
20260904171557 94 186 0.0 8.0 0.00 0.00 0.00 62 1018.6
20260904171034 93 211 3.0 8.0 0.00 0.00 0.00 62 1018.8
20260904170534 92 146 3.0 8.0 0.00 0.00 0.00 65 1019.0
20260904170109 91 42 1.0 9.0 0.00 0.00 0.00 69 1019.0
20260904165534 90 116 3.0 9.0 0.00 0.00 0.00 68 1019.0
20260904165034 90 59 2.0 7.0 0.00 0.00 0.00 68 1019.1
20260904164554 90 0 2.0 7.0 0.00 0.00 0.00 69 1019.1
20260904164035 89 175 2.0 7.0 0.00 0.00 0.00 69 1019.2
20260904163536 89 197 1.0 7.0 0.00 0.00 0.00 70 1019.1
20260904163059 89 92 2.0 9.0 0.00 0.00 0.00 71 1019.1
20260904162535 89 181 2.0 9.0 0.00 0.00 0.00 70 1019.1
20260904162035 89 138 2.0 9.0 0.00 0.00 0.00 70 1019.0
20260904161554 89 167 1.0 7.0 0.00 0.00 0.00 70 1018.9
20260904161034 89 0 2.0 7.0 0.00 0.00 0.00 70 1019.1
20260904160535 89 69 2.0 6.0 0.00 0.00 0.00 71 1018.9
20260904160055 88 121 1.0 7.0 0.00 0.00 0.00 73 1018.9
20260904155534 88 180 2.0 7.0 0.00 0.00 0.00 73 1019.0
20260904155035 88 67 2.0 7.0 0.00 0.00 0.00 72 1018.9
20260904154549 87 0 2.0 9.0 0.00 0.00 0.00 74 1018.9
20260904154035 87 64 3.0 9.0 0.00 0.00 0.00 75 1018.9
20260904153535 86 162 4.0 9.0 0.00 0.00 0.00 75 1018.8
20260904153056 86 152 2.0 8.0 0.00 0.00 0.00 75 1018.7
20260904152535 86 154 3.0 8.0 0.00 0.00 0.00 76 1018.6
20260904152034 86 179 2.0 8.0 0.00 0.00 0.00 76 1018.5
20260904151556 86 0 1.0 9.0 0.00 0.00 0.00 77 1018.4
20260904151035 85 168 2.0 9.0 0.00 0.00 0.00 78 1018.4
20260904150536 85 0 2.0 7.0 0.00 0.00 0.00 79 1018.5
20260904150055 85 154 3.0 7.0 0.00 0.00 0.00 79 1018.5
20260904145534 85 121 0.0 10.0 0.00 0.00 0.00 80 1018.4
20260904145033 85 119 3.0 10.0 0.00 0.00 0.00 80 1018.4
20260904144553 85 75 1.0 8.0 0.00 0.00 0.00 80 1018.5
20260904144035 85 163 2.0 10.0 0.00 0.00 0.00 80 1018.4
20260904143534 85 165 2.0 10.0 0.00 0.00 0.00 80 1018.5
20260904143045 85 167 4.0 12.0 0.00 0.00 0.00 80 1018.5
20260904142536 85 0 3.0 12.0 0.00 0.00 0.00 80 1018.5
20260904142035 85 157 6.0 12.0 0.00 0.00 0.00 80 1018.4
20260904141602 85 175 6.0 10.0 0.00 0.00 0.00 82 1018.3
20260904141035 84 146 3.0 10.0 0.00 0.00 0.00 83 1018.3
20260904140534 84 120 3.0 8.0 0.00 0.00 0.00 83 1018.3
20260904140055 83 132 1.0 9.0 0.00 0.00 0.00 85 1018.3
20260904135535 83 0 1.0 10.0 0.00 0.00 0.00 86 1018.3
20260904135035 82 70 3.0 10.0 0.00 0.00 0.00 87 1018.5
20260904134553 81 0 0.0 6.0 0.00 0.00 0.00 88 1018.5
20260904134034 81 0 1.0 6.0 0.00 0.00 0.00 88 1018.5
20260904133535 81 89 1.0 5.0 0.00 0.00 0.00 89 1018.4
20260904133055 80 0 0.0 6.0 0.00 0.00 0.00 89 1018.4
20260904132536 80 86 2.0 7.0 0.00 0.00 0.00 89 1018.4
20260904132036 80 92 1.0 7.0 0.00 0.00 0.00 89 1018.4
20260904131552 80 76 2.0 6.0 0.00 0.00 0.00 90 1018.3
20260904131035 79 94 1.0 7.0 0.00 0.00 0.00 91 1018.3
20260904130534 79 0 2.0 7.0 0.00 0.00 0.00 90 1018.2
20260904130050 79 117 0.0 6.0 0.00 0.00 0.00 91 1018.3
20260904125538 79 82 0.0 6.0 0.00 0.00 0.00 91 1018.2
20260904125035 79 105 0.0 5.0 0.00 0.00 0.00 91 1018.1
20260904124601 79 84 1.0 5.0 0.00 0.00 0.00 91 1018.2
20260904124036 79 78 1.0 4.0 0.00 0.00 0.00 91 1018.0
20260904123534 78 0 1.0 4.0 0.00 0.00 0.00 91 1018.1
20260904123054 78 0 0.0 6.0 0.00 0.00 0.00 91 1018.0
20260904122535 78 84 1.0 6.0 0.00 0.00 0.00 91 1018.0
20260904122035 78 101 1.0 5.0 0.00 0.00 0.00 91 1018.0
20260904121549 78 0 0.0 3.0 0.00 0.00 0.00 91 1017.9
20260904121034 78 0 0.0 3.0 0.00 0.00 0.00 91 1017.9
20260904120538 78 98 0.0 3.0 0.00 0.00 0.00 91 1017.7
20260904120057 78 0 0.0 3.0 0.00 0.00 0.00 91 1017.6
20260904115535 78 0 0.0 3.0 0.00 0.00 0.00 91 1017.5
20260904115035 78 0 0.0 3.0 0.00 0.00 0.00 90 1017.4
20260904114556 78 0 0.0 4.0 0.00 0.00 0.00 90 1017.4
20260904114035 78 68 0.0 4.0 0.00 0.00 0.00 90 1017.3
20260904113535 78 96 0.0 4.0 0.00 0.00 0.00 90 1017.2
20260904113055 78 96 0.0 4.0 0.00 0.00 0.00 91 1017.3
20260904112534 78 0 1.0 5.0 0.00 0.00 0.00 90 1017.2
20260904112034 78 88 1.0 5.0 0.00 0.00 0.00 90 1017.2
20260904111605 78 96 1.0 4.0 0.00 0.00 0.00 90 1017.1
20260904111036 78 96 0.0 3.0 0.00 0.00 0.00 90 1017.1
20260904110535 78 0 1.0 2.0 0.00 0.00 0.00 90 1017.1
20260904110051 78 100 0.0 1.0 0.00 0.00 0.00 90 1017.1
20260904105534 78 0 0.0 3.0 0.00 0.00 0.00 90 1017.1
20260904105037 78 0 0.0 3.0 0.00 0.00 0.00 90 1017.1
20260904104544 78 0 0.0 3.0 0.00 0.00 0.00 89 1017.1
20260904104034 78 0 0.0 1.0 0.00 0.00 0.00 89 1017.2
20260904103534 78 0 0.0 1.0 0.00 0.00 0.00 89 1017.1
20260904103045 78 0 0.0 2.0 0.00 0.00 0.00 89 1017.3
20260904102535 78 0 0.0 3.0 0.00 0.00 0.00 89 1017.1
20260904102034 78 0 0.0 3.0 0.00 0.00 0.00 89 1017.0
20260904101557 78 0 0.0 3.0 0.00 0.00 0.00 89 1017.1
20260904101035 78 0 0.0 1.0 0.00 0.00 0.00 90 1017.0
20260904100535 78 0 0.0 1.0 0.00 0.00 0.00 90 1017.0
20260904100050 78 0 0.0 0.0 0.00 0.00 0.00 89 1017.1
20260904095535 78 0 0.0 0.0 0.00 0.00 0.00 89 1017.1
20260904095034 78 0 0.0 0.0 0.00 0.00 0.00 89 1016.9
20260904094609 78 0 0.0 0.0 0.00 0.00 0.00 89 1017.0
20260904094035 78 0 0.0 0.0 0.00 0.00 0.00 89 1016.9
20260904093537 78 0 0.0 0.0 0.00 0.00 0.00 89 1016.9
20260904093057 78 0 0.0 0.0 0.00 0.00 0.00 88 1016.8
20260904092535 78 0 0.0 0.0 0.00 0.00 0.00 88 1016.7
20260904092035 79 0 0.0 0.0 0.00 0.00 0.00 88 1016.7
20260904091548 79 0 0.0 0.0 0.00 0.00 0.00 88 1016.7
20260904091035 79 0 0.0 0.0 0.00 0.00 0.00 88 1016.8
20260904090539 79 0 0.0 1.0 0.00 0.00 0.00 88 1016.8
20260904090055 79 0 0.0 1.0 0.00 0.00 0.00 88 1016.8
20260904085535 79 0 0.0 0.0 0.00 0.00 0.00 88 1017.0
20260904085040 79 0 0.0 0.0 0.00 0.00 0.00 88 1016.9
20260904084552 79 0 0.0 0.0 0.00 0.00 0.00 88 1016.9
20260904084035 79 0 0.0 1.0 0.00 0.00 0.00 88 1016.8
20260904083535 79 0 0.0 1.0 0.00 0.00 0.00 87 1016.8
20260904083047 79 0 0.0 1.0 0.00 0.00 0.00 87 1016.8
20260904082534 79 0 0.0 1.0 0.00 0.00 0.00 87 1017.0
20260904082036 79 0 0.0 0.0 0.00 0.00 0.00 87 1017.0
20260904081629 79 0 0.0 0.0 0.00 0.00 0.00 87 1017.0
20260904081036 79 0 0.0 0.0 0.00 0.00 0.00 87 1017.0
20260904080535 79 0 0.0 0.0 0.00 0.00 0.00 87 1017.0
20260904080055 80 0 0.0 0.0 0.00 0.00 0.00 86 1017.0
20260904075537 80 0 0.0 0.0 0.00 0.00 0.00 86 1017.1
20260904075036 80 0 0.0 0.0 0.00 0.00 0.00 86 1017.1
20260904074606 80 0 0.0 0.0 0.00 0.00 0.00 85 1017.1
20260904074035 80 0 0.0 1.0 0.00 0.00 0.00 85 1017.2
20260904073537 80 0 0.0 1.0 0.00 0.00 0.00 85 1017.2
20260904073101 80 0 0.0 1.0 0.00 0.00 0.00 85 1017.3
20260904072536 80 0 0.0 3.0 0.00 0.00 0.00 85 1017.3
20260904072035 80 0 0.0 4.0 0.00 0.00 0.00 85 1017.2
20260904071551 80 0 0.0 5.0 0.00 0.00 0.00 85 1017.2
20260904071035 81 0 0.0 5.0 0.00 0.00 0.00 84 1017.2
20260904070535 81 171 0.0 5.0 0.00 0.00 0.00 84 1017.3
20260904070107 81 161 1.0 6.0 0.00 0.00 0.00 84 1017.3
20260904065535 81 0 0.0 6.0 0.00 0.00 0.00 84 1017.3
20260904065035 81 127 1.0 5.0 0.00 0.00 0.00 83 1017.4
20260904064554 81 0 0.0 6.0 0.00 0.00 0.00 83 1017.4
20260904064037 81 150 2.0 6.0 0.00 0.00 0.00 83 1017.4
20260904063537 81 146 1.0 6.0 0.00 0.00 0.00 83 1017.4
20260904063056 81 158 1.0 5.0 0.00 0.00 0.00 83 1017.4
20260904062534 81 0 1.0 5.0 0.00 0.00 0.00 82 1017.5
20260904062034 82 0 1.0 5.0 0.00 0.00 0.00 82 1017.6
20260904061543 82 0 1.0 5.0 0.00 0.00 0.00 82 1017.6
20260904061035 82 163 2.0 9.0 0.00 0.00 0.00 82 1017.6
20260904060535 82 0 3.0 9.0 0.00 0.00 0.00 82 1017.5
20260904060056 82 150 4.0 9.0 0.00 0.00 0.00 82 1017.6
20260904055535 82 175 4.0 9.0 0.00 0.00 0.00 81 1017.6
20260904055034 82 165 3.0 8.0 0.00 0.00 0.00 81 1017.6
20260904054553 82 156 4.0 11.0 0.00 0.00 0.00 81 1017.6
20260904054035 82 155 3.0 12.0 0.00 0.00 0.00 81 1017.5
20260904053534 82 154 5.0 12.0 0.00 0.00 0.00 80 1017.4
20260904053052 82 126 5.0 13.0 0.00 0.00 0.00 80 1017.4
20260904052536 82 126 3.0 13.0 0.00 0.00 0.00 80 1017.4
20260904052034 82 145 5.0 13.0 0.00 0.00 0.00 80 1017.4
20260904051545 82 158 4.0 11.0 0.00 0.00 0.00 80 1017.3
20260904051035 82 121 5.0 11.0 0.00 0.00 0.00 80 1017.3
20260904050535 82 150 2.0 9.0 0.00 0.00 0.00 80 1017.3
20260904050057 83 125 5.0 15.0 0.00 0.00 0.00 80 1017.4
20260904045535 83 104 2.0 15.0 0.00 0.00 0.00 80 1017.4
20260904045037 83 152 4.0 10.0 0.00 0.00 0.00 80 1017.3
20260904044555 83 146 3.0 13.0 0.00 0.00 0.00 79 1017.2
20260904044038 83 360 5.0 13.0 0.00 0.00 0.00 79 1017.3
20260904043535 83 150 4.0 12.0 0.00 0.00 0.00 79 1017.2
20260904043101 83 152 3.0 12.0 0.00 0.00 0.00 78 1017.3
20260904042534 83 144 3.0 12.0 0.00 0.00 0.00 78 1017.3
20260904042039 83 144 4.0 12.0 0.00 0.00 0.00 77 1017.3
20260904041549 83 162 4.0 10.0 0.00 0.00 0.00 77 1017.3
20260904041035 83 0 4.0 10.0 0.00 0.00 0.00 77 1017.3
20260904040535 84 155 3.0 15.0 0.00 0.00 0.00 76 1017.3
20260904040058 84 155 3.0 15.0 0.00 0.00 0.00 76 1017.3
20260904035535 84 360 5.0 14.0 0.00 0.00 0.00 76 1017.2
20260904035037 84 113 3.0 9.0 0.00 0.00 0.00 75 1017.2
20260904034554 84 165 2.0 11.0 0.00 0.00 0.00 75 1017.2
20260904034036 84 150 4.0 12.0 0.00 0.00 0.00 75 1017.2
20260904033535 85 155 5.0 12.0 0.00 0.00 0.00 74 1017.1
20260904033048 85 131 4.0 15.0 0.00 0.00 0.00 74 1017.0
20260904032535 85 101 3.0 15.0 0.00 0.00 0.00 73 1017.0
20260904032035 85 132 5.0 15.0 0.00 0.00 0.00 72 1016.9
20260904031548 85 156 6.0 15.0 0.00 0.00 0.00 72 1016.8
20260904031035 85 103 5.0 14.0 0.00 0.00 0.00 71 1016.8
20260904030538 86 198 4.0 16.0 0.00 0.00 0.00 71 1016.6
20260904030045 86 61 6.0 16.0 0.00 0.00 0.00 70 1016.7
20260904025536 86 110 7.0 15.0 0.00 0.00 0.00 69 1016.6
20260904025035 86 112 6.0 15.0 0.00 0.00 0.00 68 1016.5
20260904024555 87 93 6.0 15.0 0.00 0.00 0.00 67 1016.4
20260904024035 87 134 6.0 14.0 0.00 0.00 0.00 66 1016.3
20260904023535 87 83 5.0 14.0 0.00 0.00 0.00 65 1016.3
20260904023055 87 108 6.0 17.0 0.00 0.00 0.00 64 1016.2
20260904022535 87 72 4.0 17.0 0.00 0.00 0.00 63 1016.1
20260904022036 87 360 7.0 17.0 0.00 0.00 0.00 63 1016.1
20260904021554 87 360 4.0 12.0 0.00 0.00 0.00 63 1015.9
20260904021035 87 360 5.0 12.0 0.00 0.00 0.00 63 1015.9
20260904020535 87 167 4.0 10.0 0.00 0.00 0.00 63 1015.8
20260904020045 87 115 2.0 9.0 0.00 0.00 0.00 64 1015.8
20260904015534 87 89 3.0 9.0 0.00 0.00 0.00 64 1015.7
20260904015038 87 71 4.0 9.0 0.00 0.00 0.00 64 1015.6
20260904014640 87 99 3.0 10.0 0.00 0.00 0.00 63 1015.5
20260904014034 87 120 3.0 10.0 0.00 0.00 0.00 63 1015.4
20260904013535 88 79 3.0 11.0 0.00 0.00 0.00 62 1015.4
20260904013057 88 0 4.0 11.0 0.00 0.00 0.00 62 1015.3
20260904012534 88 120 3.0 11.0 0.00 0.00 0.00 61 1015.5
20260904012035 88 164 4.0 11.0 0.00 0.00 0.00 61 1015.4
20260904011555 88 149 4.0 13.0 0.00 0.00 0.00 62 1015.5
20260904011038 88 113 7.0 13.0 0.00 0.00 0.00 61 1015.3
20260904010534 88 74 5.0 12.0 0.00 0.00 0.00 61 1015.3
20260904010051 88 60 5.0 14.0 0.00 0.00 0.00 61 1015.2
20260904005535 88 96 5.0 14.0 0.00 0.00 0.00 61 1015.0
20260904005035 88 132 6.0 14.0 0.00 0.00 0.00 61 1015.0
20260904004555 88 63 7.0 14.0 0.00 0.00 0.00 61 1014.9
20260904004035 88 69 7.0 14.0 0.00 0.00 0.00 62 1015.0
20260904003534 88 68 8.0 16.0 0.00 0.00 0.00 62 1014.9
20260904003059 89 121 7.0 17.0 0.00 0.00 0.00 61 1014.9
20260904002535 90 86 8.0 17.0 0.00 0.00 0.00 59 1014.8
20260904002035 91 60 9.0 17.0 0.00 0.00 0.00 57 1014.8
20260904001551 92 90 8.0 17.0 0.00 0.00 0.00 55 1014.7
20260904001035 94 49 10.0 17.0 0.00 0.00 0.00 52 1014.6
20260904000537 95 82 9.0 16.0 0.00 0.00 0.00 51 1014.6
20260904000135 98 66 8.0 15.0 0.00 0.00 0.00 46 1014.4
20260903235534 100 31 6.0 14.0 0.00 0.00 0.00 41 1014.5
20260903235035 101 61 6.0 14.0 0.00 0.00 0.00 40 1014.2
20260903234547 101 83 4.0 12.0 0.00 0.00 0.00 39 1014.0
20260903234035 101 122 4.0 11.0 0.00 0.00 0.00 39 1013.9
20260903233535 102 360 4.0 11.0 0.00 0.00 0.00 37 1013.8
20260903233055 102 150 1.0 8.0 0.00 0.00 0.00 37 1013.7
20260903232534 102 0 3.0 8.0 0.00 0.00 0.00 37 1013.8
20260903232038 102 360 4.0 10.0 0.00 0.00 0.00 36 1013.7
20260903231601 102 360 4.0 10.0 0.00 0.00 0.00 36 1013.8
20260903231034 102 124 3.0 14.0 0.00 0.00 0.00 36 1013.7
20260903230534 102 66 3.0 14.0 0.00 0.00 0.00 37 1013.7
20260903225536 103 57 3.0 14.0 0.00 0.00 0.00 37 1013.7
20260903225036 103 131 2.0 14.0 0.00 0.00 0.00 37 1013.6
20260903224556 103 153 5.0 10.0 0.00 0.00 0.00 35 1013.5
20260903224035 103 0 1.0 11.0 0.00 0.00 0.00 36 1013.5
20260903223535 103 136 3.0 11.0 0.00 0.00 0.00 37 1013.5
20260903223059 103 360 3.0 11.0 0.00 0.00 0.00 35 1013.6
20260903222537 103 360 4.0 11.0 0.00 0.00 0.00 35 1013.6
20260903222036 103 161 4.0 11.0 0.00 0.00 0.00 36 1013.6
20260903221557 103 103 5.0 11.0 0.00 0.00 0.00 36 1013.8
20260903221035 103 360 5.0 13.0 0.00 0.00 0.00 36 1013.8
20260903220535 103 142 3.0 13.0 0.00 0.00 0.00 36 1013.8
20260903220109 103 178 3.0 10.0 0.00 0.00 0.00 36 1013.7
20260903215536 104 155 4.0 10.0 0.00 0.00 0.00 36 1013.8
20260903215035 105 120 3.0 10.0 0.00 0.00 0.00 35 1013.8
20260903214557 105 117 3.0 10.0 0.00 0.00 0.00 35 1013.8
20260903214036 106 103 5.0 10.0 0.00 0.00 0.00 34 1013.9
20260903213535 106 121 2.0 10.0 0.00 0.00 0.00 36 1014.0
20260903213049 106 149 1.0 11.0 0.00 0.00 0.00 35 1013.8
20260903212536 106 153 5.0 11.0 0.00 0.00 0.00 35 1014.0
20260903212035 106 136 4.0 11.0 0.00 0.00 0.00 34 1014.2
20260903211554 105 53 2.0 10.0 0.00 0.00 0.00 35 1014.3
20260903211038 105 351 2.0 10.0 0.00 0.00 0.00 33 1014.4
20260903210535 105 93 4.0 9.0 0.00 0.00 0.00 35 1014.5
20260903210055 105 95 2.0 9.0 0.00 0.00 0.00 36 1014.5
20260903205536 104 132 3.0 8.0 0.00 0.00 0.00 37 1014.6
20260903205035 103 0 2.0 6.0 0.00 0.00 0.00 37 1014.5
20260903204548 104 113 0.0 7.0 0.00 0.00 0.00 36 1014.7
20260903204034 104 0 0.0 13.0 0.00 0.00 0.00 36 1014.8
20260903203538 105 52 5.0 13.0 0.00 0.00 0.00 35 1014.9
20260903203045 106 153 1.0 10.0 0.00 0.00 0.00 35 1014.9
20260903202535 105 99 1.0 10.0 0.00 0.00 0.00 35 1015.0
20260903202035 105 100 4.0 10.0 0.00 0.00 0.00 35 1015.0
20260903201557 105 79 4.0 10.0 0.00 0.00 0.00 36 1015.1